Location: Unspecified
(0.0000°N, 0.0000°E)
Time: 17:43:48
(UTC+00:00)

LilacSat-2 - Pass Details

Date: 10 December 2017
Orbit: 515 x 535 km, 97.5° (Epoch: 19 July)

Event Time Altitude Azimuth Distance (km) Brightness Sun altitude
Rises 18:38:39 0° 207° (SSW) 2,631 ? -10.5°
Reaches altitude 10° 18:42:43 10° 251° (WSW) 1,743 ? -11.4°
Maximum altitude 18:43:12 10° 258° (WSW) 1,729 ? -11.5°
Drops below altitude 10° 18:43:41 10° 266° (W) 1,742 ? -11.6°
Sets 18:47:46 0° 310° (NW) 2,629 ? -12.6°
